sat.trackr.live / text

‹ back to catalog

STARLINK-3261

NORAD 50193 · 2021-125AP

PAYLOAD ACTIVE UNKNOWN

§ Identity

Operator
Country
US
Launch date
2021-12-18
Launch site
AFWTR
Launch vehicle
Mass (kg)
RCS (m²)

Purposes: comms

External: N2YO · Heavens-Above · Gunter

§ Orbital elements

Epoch: 2026-09-19T21:10:28.773408Z

Period
94.01 min
Inclination
53.1598°
Eccentricity
0.0001235
Mean motion
15.31702842 rev/d
Perigee alt
469.9 km
Apogee alt
471.6 km
Semi-major
6,848.9 km
B*
7.0400e-6
RAAN
75.7159°
Arg perigee
73.3460°
Mean anomaly
286.7677°
Rev number
26,625

§ Raw data

STARLINK-32611 50193U 21125AP  26262.88227747 -.00000147  00000+0  70400-5 0  99902 50193  53.1598  75.7159 0001235  73.3460 286.7677 15.31702842266256

JSON: /api/v1/satellites/50193 · /tle

For live sub-satellite position, see the globe view (requires WebGL).

§ Visibility from observer

Set your observer location to see the next 7 days of passes ≥ 10°. The values pass through the URL so the page stays shareable.

No JS? Fill the form by hand. The geolocation button needs JavaScript.